Regional Weather Roundup
Issued by NWS

Home | Current Version | Previous Version | Text Only | Print | Product List | Glossary Off
Versions: 1 2 3 4 5 6 7 8 9 10 11 12 13 14 15 16 17 18 19 20 21 22 23 24 25 26 27

000
ASUS45 KTFX 162210
RWRMT
MONTANA REGIONAL WEATHER ROUNDUP
NATIONAL WEATHER SERVICE GREAT FALLS MT
300 PM MST THU NOV 16 2017

NOTE: "FAIR" INDICATES FEW OR NO CLOUDS BELOW 12000 FEET WITH NO
SIGNIFICANT WEATHER AND/OR OBSTRUCTIONS TO VISIBILITY.

MTZ001>007-043-162300-
WEST OF THE DIVIDE

CITY           SKY/WX    TMP DP  RH WIND       PRES   REMARKS
KALISPELL      CLOUDY    43  24  47 SW13G22   29.55R
MISSOULA       FAIR      44  24  45 W23G29    29.62R
BUTTE          CLOUDY    38  24  57 SW9       29.59R WCI  31
MULLAN PASS    SNOW      25  22  88 VRB7      29.56R VSB 1/2 WCI  17
ANACONDA         N/A     37  25  60 SW14      29.60R WCI  29
DEER LODGE       N/A     41  19  42 W7        29.60S
EUREKA           N/A     43  27  52 MISG      29.55R
HAMILTON         N/A     41  28  60 NW5       29.64R
LIBBY            N/A     43  34  70 E6        29.57R
PLAINS           N/A     46  29  52 CALM      29.66R
RONAN            N/A     41  27  57 SW7       29.68S
$$

MTZ008-052>055-162300-
SOUTHWEST MONTANA

CITY           SKY/WX    TMP DP  RH WIND       PRES   REMARKS
BOZEMAN        CLOUDY    38  30  73 S8        29.59R
DILLON         FAIR      47  22  37 W16       29.56R
W YELLOWSTONE  PTSUNNY   34  34 100 SW12G25   29.62R FOG     WCI  25
TWIN BRIDGES     N/A     48  23  37 MISG      29.61R
$$

MTZ009-010-012-014-046-048-049-054-162300-
EAST SLOPES AND CENTRAL MONTANA

CITY           SKY/WX    TMP DP  RH WIND       PRES   REMARKS
CUT BANK       FAIR      38  26  62 W29G37    29.46R WCI  26
GREAT FALLS    FAIR      46  17  31 W29G44    29.51R
MALMSTROM AFB  FAIR      46  17  30 W28G39    29.52R
HELENA         FAIR      42  25  50 W18       29.56R
BOWMANS CRNR   FAIR      39  18  43 W24       29.51R WCI  28
CHOTEAU          N/A     39  25  56 SW18G26   29.53R WCI  30
POWER          FAIR      41  21  44 W29G37    29.50R
RAYNESFORD     FAIR      44  19  37 W28G41    29.51R
ULM            PTSUNNY   46  19  34 SW22G33   29.54R
$$

MTZ011-013-016-021-045-047-050-051-162300-
NORTH CENTRAL MONTANA

CITY           SKY/WX    TMP DP  RH WIND       PRES   REMARKS
HAVRE          FAIR      31  25  78 NW10      29.50R WCI  22
LEWISTOWN      FAIR      42  25  50 W21G33    29.52R
N BAR RANCH    FAIR      43  27  52 W26G38    29.50S
CHINOOK          N/A     34  27  75 W15G22    29.47R WCI  24
DENTON         PTSUNNY   46  22  39 W29G36    29.45S
GEYSER         PTSUNNY   42  22  45 W22G28    29.50R
GRASS RANGE    PTSUNNY   45  26  47 W20G32    29.47R
STANFORD       FAIR      43  23  45 W21       29.51R
WINIFRED       PTSUNNY   46  23  40 W23G38    29.47S
$$

MTZ017>020-022>027-061-062-162300-
NORTHEAST MONTANA

CITY           SKY/WX    TMP DP  RH WIND       PRES   REMARKS
GLASGOW        CLOUDY    41  28  60 SW3       29.43R
GLENDIVE       PTSUNNY   43  27  53 S13       29.44F
JORDAN           N/A     48  33  56 W17G25    29.46R
SIDNEY         FAIR      42  24  49 S8        29.43S
WOLF POINT     PTSUNNY   41  25  53 NW5       29.43R
PLENTYWOOD       N/A     32  19  59 S10       29.41R WCI  24
POPLAR           N/A     39  23  52 N3        29.42R
SCOBEY           N/A     36  19  50 S3        29.41R
$$

MTZ028>42-056>058-162300-
SOUTHCENTRAL AND SOUTHEAST MONTANA

CITY           SKY/WX    TMP DP  RH WIND       PRES   REMARKS
BAKER          PTSUNNY   44  30  57 NE7       29.46F
BILLINGS       PTSUNNY   53  37  54 W26G33    29.48R
LIVINGSTON     CLOUDY    41  32  70 SW10G21   29.56R
MILES CITY     FAIR      45  31  58 S9        29.43R
BIG TIMBER     PTSUNNY   43  37  81 W18       29.54R
EKALAKA          N/A     56  27  33 S3        29.50S
FORSYTH          N/A     45  32  61 CALM      29.43F
HARLOWTON      FAIR      39  26  59 W24G31    29.52R WCI  28
LAUREL           N/A     52  37  58 W26G37    29.49R
ROUNDUP          N/A     49  30  48 NW9       29.46R
$$

REGIONAL REPORTS...DAKOTAS

CITY           SKY/WX    TMP DP  RH WIND       PRES   REMARKS
WILLISTON      FAIR      34  21  59 S8        29.45F WCI  27
MINOT          FAIR      33  23  66 SE13      29.53F WCI  24
DICKINSON      FAIR      35  23  61 S12       29.47F WCI  27
BEACH          FAIR      37  25  60 S8G14     29.48S WCI  31
CROSBY         FAIR      28  21  74 S9G18     29.44F WCI  20
TIOGA          FAIR      28  27  93 S12G21    29.47F WCI  18
WATFORD CITY   FAIR      36  21  55 SE13      29.45S WCI  27
BISMARCK       FAIR      42  28  57 SE14      29.59F
GRAND FORKS    FAIR      30  26  85 SE28G35   29.79F WCI  15
FARGO          FAIR      33  25  72 SE24G40   29.81F WCI  20
BUFFALO SD       N/A     36  25  64 SE8       29.43S WCI  30
RAPID CITY     FAIR      71  26  18 SW14      29.50F
$$

REGIONAL REPORTS...WYOMING/IDAHO/WASHINGTON

CITY           SKY/WX    TMP DP  RH WIND       PRES   REMARKS
GILLETTE       FAIR      65  28  24 SW28G39   29.51R
SHERIDAN       FAIR      64  30  27 SW26G40   29.44R
BUFFALO WY     FAIR      59  28  30 W40G58    29.47R
CODY           FAIR      50  36  58 SW17      29.54S
YELLOWSTONE LA   N/A     33  32  96 VRB5      29.67R
IDAHO FALLS    LGT RAIN  43  42  97 S13       29.71S
SALMON         PTSUNNY   51  25  36 W8G18     29.59R
BOISE          FAIR      52  33  48 N10G21    29.69F
SPOKANE        PTSUNNY   42  35  76 SW12      29.61S
$$

REGIONAL REPORTS...ALBERTA

CITY           SKY/WX    TMP DP  RH WIND       PRES   REMARKS
EDMONTON       CLOUDY    14   7  73 NW7       29.51S WCI   4
CALGARY        MOSUNNY   14   7  73 NE3       29.44R HAZE
LETHBRIDGE     MOSUNNY   21  12  68 SW3       29.50R
MEDICINE HAT   FLURRIES  18  12  79 W20       29.54R WCI   1
$$

REGIONAL REPORTS...SASKATCHEWAN

CITY           SKY/WX    TMP DP  RH WIND       PRES   REMARKS
SWIFT CURRENT  CLOUDY    27  23  86 W31G41    29.34R WCI  10
REGINA         MOCLDY    23  19  86 SE23G32   29.35F WCI   7
SASKATOON      SNOW      23  21  93 CALM      29.28  VSB 1/2
$$




USA.gov is the U.S. government's official web portal to all federal, state and local government web resources and services.